| time (UTC) | temp C | wind direction | speed KPH | gust KPH | rain 1hr cm | rain 24hr cm | rain mn cm | humidity % | barometer mb |
| 20260504202418 | 20 | 268 | 12.9 | 16.1 | 0.00 | 0.00 | 0.00 | 29 | 1006.3 |
| 20260504201915 | 20 | 231 | 6.4 | 8.0 | 0.00 | 0.00 | 0.00 | 29 | 1006.3 |
| 20260504201412 | 19 | 205 | 6.4 | 11.3 | 0.00 | 0.00 | 0.00 | 30 | 1006.6 |
| 20260504200910 | 20 | 286 | 11.3 | 14.5 | 0.00 | 0.00 | 0.00 | 29 | 1006.6 |
| 20260504200406 | 20 | 255 | 6.4 | 9.7 | 0.00 | 0.00 | 0.00 | 30 | 1007.1 |
| 20260504195903 | 20 | 240 | 11.3 | 12.9 | 0.00 | 0.00 | 0.00 | 29 | 1007.1 |
| 20260504195358 | 20 | 229 | 16.1 | 17.7 | 0.00 | 0.00 | 0.00 | 30 | 1007.1 |
| 20260504194855 | 20 | 204 | 11.3 | 12.9 | 0.00 | 0.00 | 0.00 | 30 | 1007.1 |
| 20260504194351 | 20 | 234 | 3.2 | 8.0 | 0.00 | 0.00 | 0.00 | 29 | 1007.1 |
| 20260504193847 | 20 | 318 | 6.4 | 8.0 | 0.00 | 0.00 | 0.00 | 32 | 1007.4 |
| 20260504193344 | 20 | 235 | 4.8 | 8.0 | 0.00 | 0.00 | 0.00 | 31 | 1007.4 |
| 20260504192843 | 20 | 303 | 12.9 | 22.5 | 0.00 | 0.00 | 0.00 | 31 | 1007.1 |
| 20260504192341 | 20 | 230 | 6.4 | 9.7 | 0.00 | 0.00 | 0.00 | 29 | 1007.4 |
| 20260504191839 | 19 | 338 | 4.8 | 8.0 | 0.00 | 0.00 | 0.00 | 33 | 1007.4 |
| 20260504191337 | 20 | 256 | 14.5 | 14.5 | 0.00 | 0.00 | 0.00 | 30 | 1007.4 |
| 20260504190832 | 20 | 237 | 12.9 | 20.9 | 0.00 | 0.00 | 0.00 | 30 | 1007.8 |
| 20260504190328 | 20 | 208 | 9.7 | 11.3 | 0.00 | 0.00 | 0.00 | 30 | 1007.4 |
| 20260504185825 | 20 | 255 | 8.0 | 11.3 | 0.00 | 0.00 | 0.00 | 30 | 1007.4 |
| 20260504185322 | 20 | 286 | 9.7 | 11.3 | 0.00 | 0.00 | 0.00 | 30 | 1007.8 |
| 20260504184818 | 20 | 346 | 3.2 | 8.0 | 0.00 | 0.00 | 0.00 | 32 | 1007.4 |
| 20260504184314 | 19 | 220 | 4.8 | 8.0 | 0.00 | 0.00 | 0.00 | 33 | 1007.8 |
| 20260504183809 | 19 | 175 | 19.3 | 29.0 | 0.00 | 0.00 | 0.00 | 32 | 1007.8 |
| 20260504183307 | 19 | 230 | 6.4 | 8.0 | 0.00 | 0.00 | 0.00 | 33 | 1007.8 |
| 20260504182805 | 18 | 223 | 1.6 | 1.6 | 0.00 | 0.00 | 0.00 | 37 | 1007.8 |
| 20260504182304 | 18 | 220 | 8.0 | 11.3 | 0.00 | 0.00 | 0.00 | 35 | 1008.1 |
| 20260504181759 | 18 | 264 | 12.9 | 24.1 | 0.00 | 0.00 | 0.00 | 34 | 1007.8 |
| 20260504181256 | 18 | 238 | 11.3 | 16.1 | 0.00 | 0.00 | 0.00 | 34 | 1007.8 |
| 20260504180755 | 18 | 203 | 8.0 | 9.7 | 0.00 | 0.00 | 0.00 | 34 | 1007.8 |
| 20260504180254 | 20 | 237 | 12.9 | 16.1 | 0.00 | 0.00 | 0.00 | 33 | 1007.8 |
| 20260504175751 | 19 | 277 | 6.4 | 8.0 | 0.00 | 0.00 | 0.00 | 34 | 1008.1 |
| 20260504175248 | 18 | 245 | 14.5 | 22.5 | 0.00 | 0.00 | 0.00 | 34 | 1007.8 |
| 20260504174745 | 19 | 205 | 6.4 | 8.0 | 0.00 | 0.00 | 0.00 | 34 | 1008.1 |
| 20260504174243 | 18 | 195 | 9.7 | 12.9 | 0.00 | 0.00 | 0.00 | 35 | 1008.1 |
| 20260504173739 | 19 | 275 | 11.3 | 14.5 | 0.00 | 0.00 | 0.00 | 34 | 1008.1 |
| 20260504173237 | 18 | 205 | 12.9 | 25.7 | 0.00 | 0.00 | 0.00 | 35 | 1008.1 |
| 20260504172733 | 18 | 316 | 11.3 | 14.5 | 0.00 | 0.00 | 0.00 | 37 | 1007.8 |
| 20260504172230 | 18 | 241 | 8.0 | 12.9 | 0.00 | 0.00 | 0.00 | 36 | 1008.1 |
| 20260504171726 | 18 | 154 | 14.5 | 20.9 | 0.00 | 0.00 | 0.00 | 36 | 1008.1 |
| 20260504171223 | 18 | 235 | 12.9 | 16.1 | 0.00 | 0.00 | 0.00 | 37 | 1008.1 |
| 20260504170720 | 18 | 205 | 4.8 | 8.0 | 0.00 | 0.00 | 0.00 | 37 | 1008.1 |
| 20260504170217 | 17 | 221 | 4.8 | 8.0 | 0.00 | 0.00 | 0.00 | 39 | 1008.1 |
| 20260504160136 | 16 | 222 | 9.7 | 11.3 | 0.00 | 0.00 | 0.00 | 40 | 1008.9 |
| 20260504151103 | 14 | 178 | 11.3 | 12.9 | 0.00 | 0.00 | 0.00 | 42 | 1009.2 |
| 20260504150601 | 13 | 236 | 8.0 | 12.9 | 0.00 | 0.00 | 0.00 | 43 | 1009.2 |
| 20260504141020 | 12 | 217 | 8.0 | 20.9 | 0.00 | 0.00 | 0.00 | 45 | 1009.9 |
| 20260504140517 | 12 | 255 | 9.7 | 11.3 | 0.00 | 0.00 | 0.00 | 43 | 1009.5 |
| 20260504130442 | 10 | 203 | 4.8 | 8.0 | 0.00 | 0.00 | 0.00 | 50 | 1009.9 |
| 20260504110328 | 6 | 194 | 4.8 | 8.0 | 0.00 | 0.00 | 0.00 | 56 | 1010.2 |
| 20260504100246 | 5 | 282 | 4.8 | 4.8 | 0.00 | 0.00 | 0.00 | 59 | 1009.9 |
| 20260504081639 | 6 | 198 | 4.8 | 3.2 | 0.00 | 0.00 | 0.00 | 54 | 1010.2 |
| 20260504081135 | 7 | 237 | 4.8 | 4.8 | 0.00 | 0.00 | 0.00 | 54 | 1010.2 |
| 20260504080632 | 7 | 197 | 4.8 | 4.8 | 0.00 | 0.00 | 0.00 | 53 | 1010.2 |
| 20260504080128 | 7 | 209 | 8.0 | 11.3 | 0.00 | 0.00 | 0.00 | 52 | 1010.2 |
| 20260504050445 | 8 | 248 | 4.8 | 4.8 | 0.00 | 0.00 | 0.00 | 47 | 1010.6 |
| 20260504045942 | 8 | 254 | 8.0 | 9.7 | 0.00 | 0.00 | 0.00 | 47 | 1010.6 |
| 20260504045437 | 8 | 248 | 4.8 | 8.0 | 0.00 | 0.00 | 0.00 | 47 | 1010.6 |
| 20260504044934 | 8 | 230 | 4.8 | 4.8 | 0.00 | 0.00 | 0.00 | 46 | 1010.6 |
| 20260504044432 | 8 | 242 | 6.4 | 8.0 | 0.00 | 0.00 | 0.00 | 46 | 1010.6 |
| 20260504043929 | 8 | 205 | 4.8 | 4.8 | 0.00 | 0.00 | 0.00 | 46 | 1010.6 |
| 20260504043426 | 8 | 200 | 4.8 | 4.8 | 0.00 | 0.00 | 0.00 | 46 | 1010.6 |
| 20260504042923 | 8 | 197 | 4.8 | 3.2 | 0.00 | 0.00 | 0.00 | 46 | 1010.2 |
| 20260504042420 | 8 | 222 | 3.2 | 3.2 | 0.00 | 0.00 | 0.00 | 46 | 1010.6 |
| 20260504041916 | 8 | 232 | 6.4 | 8.0 | 0.00 | 0.00 | 0.00 | 45 | 1010.6 |
| 20260504041412 | 9 | 221 | 6.4 | 8.0 | 0.00 | 0.00 | 0.00 | 44 | 1010.6 |
| 20260504040909 | 9 | 222 | 4.8 | 4.8 | 0.00 | 0.00 | 0.00 | 44 | 1010.6 |
| 20260504040407 | 9 | 227 | 6.4 | 9.7 | 0.00 | 0.00 | 0.00 | 44 | 1010.6 |
| 20260504035902 | 9 | 239 | 4.8 | 4.8 | 0.00 | 0.00 | 0.00 | 43 | 1010.6 |
| 20260504035400 | 9 | 259 | 4.8 | 4.8 | 0.00 | 0.00 | 0.00 | 43 | 1010.6 |
| 20260504034856 | 9 | 225 | 4.8 | 4.8 | 0.00 | 0.00 | 0.00 | 43 | 1010.6 |
| 20260504034354 | 9 | 232 | 4.8 | 3.2 | 0.00 | 0.00 | 0.00 | 43 | 1011.0 |
| 20260504033850 | 9 | 230 | 4.8 | 3.2 | 0.00 | 0.00 | 0.00 | 44 | 1010.6 |
| 20260504033349 | 9 | 239 | 4.8 | 4.8 | 0.00 | 0.00 | 0.00 | 44 | 1010.6 |
| 20260504032845 | 9 | 230 | 4.8 | 4.8 | 0.00 | 0.00 | 0.00 | 44 | 1010.6 |
| 20260504032342 | 9 | 215 | 4.8 | 4.8 | 0.00 | 0.00 | 0.00 | 43 | 1010.6 |
| 20260504031839 | 9 | 229 | 3.2 | 3.2 | 0.00 | 0.00 | 0.00 | 44 | 1011.0 |
| 20260504031336 | 9 | 245 | 6.4 | 4.8 | 0.00 | 0.00 | 0.00 | 43 | 1011.3 |
| 20260504030832 | 9 | 233 | 6.4 | 9.7 | 0.00 | 0.00 | 0.00 | 44 | 1011.3 |
| 20260504030330 | 10 | 242 | 3.2 | 3.2 | 0.00 | 0.00 | 0.00 | 43 | 1011.0 |
| 20260504025826 | 9 | 257 | 8.0 | 9.7 | 0.00 | 0.00 | 0.00 | 43 | 1010.6 |
| 20260504025323 | 9 | 239 | 4.8 | 4.8 | 0.00 | 0.00 | 0.00 | 44 | 1011.0 |
| 20260504024820 | 9 | 232 | 6.4 | 9.7 | 0.00 | 0.00 | 0.00 | 44 | 1011.0 |
| 20260504024316 | 9 | 225 | 6.4 | 8.0 | 0.00 | 0.00 | 0.00 | 44 | 1011.0 |
| 20260504023813 | 9 | 269 | 6.4 | 4.8 | 0.00 | 0.00 | 0.00 | 44 | 1011.0 |
| 20260504023309 | 9 | 252 | 6.4 | 8.0 | 0.00 | 0.00 | 0.00 | 45 | 1011.3 |
| 20260504022805 | 9 | 236 | 4.8 | 4.8 | 0.00 | 0.00 | 0.00 | 45 | 1011.0 |
| 20260504022304 | 9 | 231 | 3.2 | 3.2 | 0.00 | 0.00 | 0.00 | 45 | 1011.3 |
| 20260504021758 | 9 | 234 | 6.4 | 4.8 | 0.00 | 0.00 | 0.00 | 45 | 1011.0 |
| 20260504021256 | 9 | 251 | 4.8 | 4.8 | 0.00 | 0.00 | 0.00 | 47 | 1011.0 |
| 20260504020753 | 9 | 217 | 4.8 | 8.0 | 0.00 | 0.00 | 0.00 | 46 | 1011.0 |
| 20260504020249 | 9 | 252 | 4.8 | 3.2 | 0.00 | 0.00 | 0.00 | 46 | 1011.3 |
| 20260504015745 | 9 | 260 | 8.0 | 9.7 | 0.00 | 0.00 | 0.00 | 46 | 1011.3 |
| 20260504015242 | 9 | 252 | 8.0 | 11.3 | 0.00 | 0.00 | 0.00 | 47 | 1011.3 |
| 20260504014738 | 9 | 280 | 8.0 | 12.9 | 0.00 | 0.00 | 0.00 | 47 | 1011.3 |
| 20260504014235 | 9 | 256 | 4.8 | 4.8 | 0.00 | 0.00 | 0.00 | 47 | 1011.3 |
| 20260504013732 | 8 | 230 | 8.0 | 9.7 | 0.00 | 0.00 | 0.00 | 48 | 1011.7 |
| 20260504013230 | 9 | 233 | 9.7 | 11.3 | 0.00 | 0.00 | 0.00 | 50 | 1011.3 |
| 20260504012726 | 10 | 247 | 16.1 | 24.1 | 0.00 | 0.00 | 0.00 | 45 | 1011.3 |
| 20260504012224 | 10 | 341 | 8.0 | 9.7 | 0.00 | 0.00 | 0.00 | 43 | 1011.0 |
| 20260504011721 | 10 | 274 | 4.8 | 8.0 | 0.00 | 0.00 | 0.00 | 44 | 1011.0 |
| 20260504011218 | 10 | 231 | 12.9 | 14.5 | 0.00 | 0.00 | 0.00 | 43 | 1011.0 |
| 20260504010714 | 9 | 244 | 9.7 | 12.9 | 0.00 | 0.00 | 0.00 | 46 | 1011.0 |
| 20260504010210 | 9 | 231 | 8.0 | 9.7 | 0.00 | 0.00 | 0.00 | 47 | 1011.0 |
| 20260504005706 | 9 | 241 | 9.7 | 16.1 | 0.00 | 0.00 | 0.00 | 46 | 1011.0 |
| 20260504005203 | 9 | 265 | 6.4 | 9.7 | 0.00 | 0.00 | 0.00 | 46 | 1011.0 |
| 20260504004702 | 9 | 320 | 14.5 | 17.7 | 0.00 | 0.00 | 0.00 | 46 | 1011.0 |
| 20260504004158 | 9 | 326 | 8.0 | 9.7 | 0.00 | 0.00 | 0.00 | 45 | 1011.0 |
| 20260504003654 | 9 | 255 | 22.5 | 25.7 | 0.00 | 0.00 | 0.00 | 45 | 1010.6 |
| 20260504003151 | 9 | 270 | 8.0 | 11.3 | 0.00 | 0.00 | 0.00 | 46 | 1011.0 |
| 20260504002648 | 9 | 239 | 4.8 | 8.0 | 0.00 | 0.00 | 0.00 | 46 | 1010.6 |
| 20260504002145 | 9 | 253 | 6.4 | 9.7 | 0.00 | 0.00 | 0.00 | 45 | 1010.6 |
| 20260504001643 | 10 | 290 | 4.8 | 3.2 | 0.00 | 0.00 | 0.00 | 46 | 1011.0 |
| 20260504001139 | 10 | 319 | 11.3 | 14.5 | 0.00 | 0.00 | 0.00 | 45 | 1011.0 |
| 20260504000636 | 10 | 321 | 9.7 | 16.1 | 0.00 | 0.00 | 0.00 | 45 | 1010.6 |
| 20260504000134 | 10 | 285 | 9.7 | 14.5 | 0.00 | 0.00 | 0.00 | 45 | 1010.6 |
| 20260503235631 | 10 | 328 | 14.5 | 16.1 | 0.00 | 0.00 | 0.00 | 44 | 1010.6 |
| 20260503235128 | 10 | 345 | 14.5 | 24.1 | 0.00 | 0.00 | 0.00 | 44 | 1010.6 |
| 20260503234626 | 10 | 238 | 12.9 | 22.5 | 0.00 | 0.00 | 0.00 | 42 | 1010.6 |
| 20260503234124 | 10 | 309 | 6.4 | 8.0 | 0.00 | 0.00 | 0.00 | 41 | 1010.2 |
| 20260503233621 | 10 | 295 | 8.0 | 12.9 | 0.00 | 0.00 | 0.00 | 40 | 1010.2 |
| 20260503233116 | 10 | 322 | 6.4 | 4.8 | 0.00 | 0.00 | 0.00 | 41 | 1010.2 |
| 20260503232613 | 10 | 267 | 3.2 | 3.2 | 0.00 | 0.00 | 0.00 | 41 | 1010.2 |
| 20260503232110 | 10 | 292 | 6.4 | 14.5 | 0.00 | 0.00 | 0.00 | 40 | 1009.9 |
| 20260503231608 | 10 | 277 | 8.0 | 9.7 | 0.00 | 0.00 | 0.00 | 41 | 1009.9 |
| 20260503231104 | 10 | 246 | 4.8 | 8.0 | 0.00 | 0.00 | 0.00 | 40 | 1009.9 |
| 20260503230601 | 11 | 276 | 4.8 | 4.8 | 0.00 | 0.00 | 0.00 | 39 | 1009.9 |
| 20260503230053 | 11 | 238 | 6.4 | 8.0 | 0.00 | 0.00 | 0.00 | 38 | 1009.9 |
| 20260503225550 | 11 | 225 | 8.0 | 11.3 | 0.00 | 0.00 | 0.00 | 38 | 1009.9 |
| 20260503225045 | 11 | 256 | 1.6 | 1.6 | 0.00 | 0.00 | 0.00 | 41 | 1009.9 |
| 20260503224543 | 10 | 282 | 0.0 | 1.6 | 0.00 | 0.00 | 0.00 | 41 | 1009.9 |
| 20260503224041 | 10 | 229 | 3.2 | 3.2 | 0.00 | 0.00 | 0.00 | 41 | 1009.9 |
| 20260503223539 | 10 | 277 | 4.8 | 4.8 | 0.00 | 0.00 | 0.00 | 41 | 1009.9 |
| 20260503223034 | 10 | 278 | 4.8 | 4.8 | 0.00 | 0.00 | 0.00 | 41 | 1009.9 |
| 20260503222532 | 10 | 240 | 3.2 | 3.2 | 0.00 | 0.00 | 0.00 | 42 | 1009.9 |
| 20260503222030 | 10 | 314 | 4.8 | 4.8 | 0.00 | 0.00 | 0.00 | 42 | 1009.9 |
| 20260503221528 | 10 | 318 | 3.2 | 3.2 | 0.00 | 0.00 | 0.00 | 40 | 1010.2 |
| 20260503221025 | 10 | 305 | 4.8 | 3.2 | 0.00 | 0.00 | 0.00 | 40 | 1009.9 |
| 20260503220520 | 10 | 230 | 4.8 | 4.8 | 0.00 | 0.00 | 0.00 | 41 | 1010.2 |
| 20260503220017 | 10 | 312 | 4.8 | 4.8 | 0.00 | 0.00 | 0.00 | 40 | 1009.9 |
| 20260503215515 | 10 | 276 | 3.2 | 3.2 | 0.00 | 0.00 | 0.00 | 40 | 1010.2 |
| 20260503215012 | 11 | 267 | 8.0 | 9.7 | 0.00 | 0.00 | 0.00 | 39 | 1009.9 |
| 20260503214511 | 11 | 262 | 1.6 | 3.2 | 0.00 | 0.00 | 0.00 | 40 | 1010.2 |
| 20260503214007 | 10 | 287 | 4.8 | 4.8 | 0.00 | 0.00 | 0.00 | 39 | 1009.9 |
| 20260503213505 | 11 | 321 | 8.0 | 11.3 | 0.00 | 0.00 | 0.00 | 39 | 1009.9 |
| 20260503213001 | 10 | 308 | 4.8 | 4.8 | 0.00 | 0.00 | 0.00 | 41 | 1010.2 |
| 20260503212458 | 10 | 322 | 11.3 | 14.5 | 0.00 | 0.00 | 0.00 | 41 | 1010.2 |
| 20260503211955 | 10 | 263 | 6.4 | 8.0 | 0.00 | 0.00 | 0.00 | 41 | 1010.2 |
| 20260503211452 | 10 | 318 | 6.4 | 11.3 | 0.00 | 0.00 | 0.00 | 41 | 1010.2 |
| 20260503210948 | 10 | 259 | 4.8 | 8.0 | 0.00 | 0.00 | 0.00 | 41 | 1010.2 |
| 20260503210445 | 10 | 304 | 8.0 | 8.0 | 0.00 | 0.00 | 0.00 | 41 | 1010.2 |
| 20260503205939 | 10 | 320 | 8.0 | 11.3 | 0.00 | 0.00 | 0.00 | 43 | 1009.9 |
| 20260503205437 | 10 | 291 | 9.7 | 14.5 | 0.00 | 0.00 | 0.00 | 42 | 1010.2 |
| 20260503204933 | 10 | 323 | 4.8 | 4.8 | 0.00 | 0.00 | 0.00 | 42 | 1010.2 |
| 20260503204430 | 10 | 282 | 8.0 | 9.7 | 0.00 | 0.00 | 0.00 | 42 | 1010.6 |
| 20260503203927 | 8 | 323 | 9.7 | 12.9 | 0.00 | 0.00 | 0.00 | 44 | 1010.6 |
| 20260503203425 | 8 | 332 | 9.7 | 11.3 | 0.00 | 0.00 | 0.00 | 44 | 1010.6 |
| 20260503202921 | 9 | 302 | 9.7 | 14.5 | 0.00 | 0.00 | 0.00 | 44 | 1010.6 |